Simultaneous Nadir Overpasses (SNOs) Predictions

Prediction of SNOs between FY3D and METOP-A Satellite Orbit:

Table of predicted SNOs for the next 14.0 days since TLE Epoch: 11/27/2021
Index Date (FY3D) Time (FY3D) Lat,Lon (FY3D) SZA (FY3D ) Date (METOP-A) Time (METOP-A) Lat,Lon (METOP-A) SZA (METOP-A ) Distance(km) Time Diff (sec)
1 11/27/2021 23:28:22 -77.72, -11.32 80.60 11/27/2021 23:28:35 -77.72, -11.30 80.60 0.61 13
2 11/28/2021 00:19:04 77.52, 156.92 99.17 11/28/2021 00:17:53 77.50, 155.42 99.26 36.10 71
3 11/30/2021 07:18:45 -77.74,-128.99 80.17 11/30/2021 07:19:34 -77.75,-128.85 80.19 3.56 49
4 11/30/2021 08:09:30 77.67, 38.64 99.76 11/30/2021 08:08:57 77.67, 38.48 99.77 3.73 33
5 12/02/2021 15:59:53 77.70, -79.07 100.15 12/02/2021 16:00:03 77.70, -79.05 100.16 0.84 10
6 12/04/2021 23:50:18 77.73, 163.20 100.52 12/04/2021 23:51:10 77.73, 163.38 100.50 4.27 52
7 12/05/2021 00:41:02 -77.67, -29.23 79.55 12/05/2021 00:40:07 -77.68, -29.10 79.54 3.23 55
8 12/07/2021 08:31:27 -77.66,-146.76 79.28 12/07/2021 08:31:07 -77.66,-146.84 79.27 1.95 20
9 12/07/2021 09:22:08 77.44, 21.59 100.46 12/07/2021 09:20:58 77.43, 19.74 100.58 44.88 70
10 12/09/2021 16:21:54 -77.69, 95.50 78.99 12/09/2021 16:22:06 -77.69, 95.65 79.00 3.69 12



Historial Predications of SNOs between FY3D and METOP-A
